This is the latest recevied weather packets stored in our database for station/object M0JUI-1. If no packets are shown the sender has not sent any weather packets the latest 10 day(s).
| Time | Temp. | Humidity | Pressure | Rain* | Wind** | Luminosity | Snow |
|---|---|---|---|---|---|---|---|
| 1788625137 | 18.89° C | 99% | 1024.2 hPa | 0 mm | - | 128 W/m² | - |
| 1788624837 | 18.33° C | 99% | 1024.3 hPa | 0 mm | - | 115 W/m² | - |
| 1788624537 | 18.33° C | 99% | 1024.4 hPa | 0 mm | - | 116 W/m² | - |
| 1788624225 | 18.33° C | 99% | 1024.2 hPa | 0 mm | - | 137 W/m² | - |
| 1788623925 | 18.33° C | 99% | 1024.6 hPa | 0 mm | - | 133 W/m² | - |
| 1788623625 | 18.89° C | 99% | 1024.3 hPa | 0 mm | - | 132 W/m² | - |
| 1788623313 | 18.89° C | 99% | 1024.3 hPa | 0 mm | - | 156 W/m² | - |
| 1788623012 | 18.89° C | 99% | 1024.3 hPa | 0 mm | - | 149 W/m² | - |
| 1788622713 | 18.33° C | 99% | 1024.1 hPa | 0 mm | - | 172 W/m² | - |
| 1788622402 | 18.33° C | 99% | 1024.2 hPa | 0 mm | - | 156 W/m² | - |
| 1788622101 | 18.33° C | 99% | 1024.2 hPa | 0 mm | - | 163 W/m² | - |
| 1788621802 | 18.33° C | 99% | 1024.3 hPa | 0 mm | - | 145 W/m² | - |
| 1788621489 | 18.33° C | 99% | 1024.6 hPa | 0 mm | - | 146 W/m² | - |
| 1788621189 | 18.89° C | 99% | 1024.2 hPa | 0 mm | - | 157 W/m² | - |
| 1788620889 | 18.89° C | 99% | 1024.3 hPa | 0 mm | - | 137 W/m² | - |
| 1788620589 | 18.33° C | 99% | 1024.4 hPa | 0 mm | - | 166 W/m² | - |
| 1788620290 | 18.33° C | 99% | 1024.2 hPa | 0 mm | - | 162 W/m² | - |
| 1788619989 | 18.33° C | 99% | 1024.2 hPa | 0 mm | - | 131 W/m² | - |
| 1788619689 | 18.89° C | 99% | 1024.2 hPa | 0 mm | - | 175 W/m² | - |
| 1788619390 | 18.89° C | 99% | 1024.2 hPa | 0 mm | - | 447 W/m² | - |
| 1788619089 | 18.89° C | 99% | 1024.4 hPa | 0 mm | - | 175 W/m² | - |
| 1788618789 | 18.89° C | 99% | 1024.2 hPa | 0 mm | - | 150 W/m² | - |
| 1788618489 | 19.44° C | 97% | 1024.1 hPa | 0 mm | - | 205 W/m² | - |
| 1788618178 | 18.89° C | 99% | 1024.4 hPa | 0 mm | - | 318 W/m² | - |
| 1788617878 | 18.89° C | 99% | 1024.3 hPa | 0 mm | - | 220 W/m² | - |
* Rain latest hour (hover to see other rain measurements)
** Current wind speed in m/s (hover to see current wind gust speed)